CZ-6A DEB

Satellite information

Favourite Embed

Satellite Type and Status

DEBRISIN ORBIT

Key statistics

Satellite CZ-6A DEB at a glance.

Uptime

909

Days in orbit

Revolutions

≈ 14.1

Per day

Orbit

SSO

Sun Synchronous Orbit

Inclination

98.8

Latest

Satellite identification and parameters

Extended collection of information and parameters for CZ-6A DEB.

Object identification

Identified? True

Debris? True

Object name: CZ-6A DEB

International designator: 2022-151KR

Object number (NORAD): 54541

Object ID (CCSDS): 54541

Country: PEOPLES REPUBLIC OF CHINA (PRC)

Current information (Y/N): Y

RCS size: MEDIUM

Orbital parameters

Period: 102.341 minutes

Inclination: 98.8427 deg

SMA: 7247.602 km

Apoapsis: 914.414 km

Periapsis: 824.519 km

RAAN: 126.8603 deg

Eccentricy: 0.0062017

Argument of periapsis: 65.242 deg

Mean anomaly: 295.5186 deg

Mean motion: 14.07055699 rev/day

Mean motion (dot): 0.00000236 rev/day2

B* drag term: 0.00016424 1/REarth

Two-line elements (TLE)

Creation date: May 8, 2025, 3:01 a.m.

Reference frame: TEME

Reference center: EARTH

Epoch: May 7, 2025, 9:04 p.m. UTC

TLE line 0: 0 CZ-6A DEB

TLE line 1: 1 54541U 22151KR 25127.87841353 .00000236 00000-0 16424-3 0 9997

TLE line 2: 2 54541 98.8427 126.8603 0062017 65.2420 295.5186 14.07055699127361

Live tracking on map

Real-time ground track for satellite CZ-6A DEB.

In-orbit conjunctions

A list of the most updated potential collisions computed for object CZ-6A DEB.

Target Orbit TCA Probability of collision Miss distance Type
CZ-6A DEB SSO 2024-05-28 04:49:19 0.0001483851 320.0 (m) DEBRIS

Associated space launch

Chinese satellite reported for atmospheric/ocean/environmental/spatial parameter research purposes, details TBD.

CZ-6A DEB was lifted into orbit during the mission ‘Long March 6A | Yunhai 3’, on board a Long March 6A space rocket.

The launch took place on Nov. 11, 2022, 10:52 p.m. from Launch Complex 9A.

For more information about the launch, click the button.

Launch to space Long March 6A | Yunhai 3
Long March 6A | Yunhai 3

Agency: N/A

Status: Launch Successful

Launch date: Nov. 11, 2022, 10:52 p.m. UTC

Rocket: Long March 6A

Launch pad: Launch Complex 9A

Location: Taiyuan Satellite Launch Center, People's Republic of China

...

Latest news about this satellite

There are no fresh news available about this satellite. Check back as we update our databases every day.


Newsletter sign-up

Weekly statistics, charts and insights to help you stay on top of the space industry.